Location: Soapstone Prairie Natural Area
(40.9437°N, 105.0829°W)
Time: 04:19:14
(UTC-06:00)

ISS - Visible Passes

Search period start: 23 May 2015 00:00
Search period end: 02 June 2015 00:00
Orbit: 399 x 404 km, 51.6° (Epoch: 22 May)

Date Brightness Start Highest point End Pass type
(mag) Time Alt. Az. Time Alt. Az. Time Alt. Az.
23 May -1.2 02:20:43 27° NNE 02:20:43 27° NNE 02:22:35 10° NE visible
23 May -0.5 03:54:36 10° NW 03:56:32 15° N 03:58:28 10° NNE visible
24 May -0.2 01:29:09 12° NE 01:29:09 12° NE 01:29:28 10° NE visible
24 May -0.8 03:01:43 15° NW 03:03:03 18° NNW 03:05:23 10° NNE visible
24 May -0.3 04:38:51 10° NNW 04:40:26 13° N 04:42:02 10° NNE visible
25 May -1.0 02:10:05 23° N 02:10:05 23° N 02:12:19 10° NE visible
25 May -0.3 03:45:17 10° NNW 03:46:52 13° N 03:48:26 10° NNE visible
26 May -0.4 01:18:22 16° NE 01:18:22 16° NE 01:19:14 10° NE visible
26 May -0.3 02:51:26 10° NW 02:53:16 14° N 02:55:06 10° NNE visible
26 May -0.3 04:28:44 10° NNW 04:30:42 15° N 04:32:40 10° NE visible
27 May -0.6 01:59:05 16° NNW 01:59:41 17° NNW 02:01:55 10° NNE visible
27 May -0.2 03:35:27 10° NNW 03:37:05 13° N 03:38:44 10° NE visible
28 May -0.6 01:07:06 19° N 01:07:06 19° N 01:08:46 10° NNE visible
28 May -0.1 02:41:54 10° NNW 02:43:26 13° N 02:44:59 10° NNE visible
28 May -0.5 04:18:19 10° NNW 04:20:47 20° NNE 04:23:17 10° ENE visible
29 May -0.5 00:14:51 15° NNE 00:14:51 15° NNE 00:15:36 10° NE visible
29 May -0.1 01:48:01 10° NW 01:49:46 14° N 01:51:31 10° NNE visible
29 May -0.2 03:25:08 10° NNW 03:27:10 15° NNE 03:29:14 10° NE visible
29 May -0.6 23:21:58 13° NE 23:21:58 13° NE 23:22:21 10° NE visible
30 May -0.3 00:54:24 12° NW 00:56:05 16° NNW 00:58:13 10° NNE visible
30 May 0.0 02:31:48 10° NNW 02:33:30 13° N 02:35:11 10° NE visible
30 May -1.2 04:07:44 10° NW 04:10:41 30° NNE 04:13:38 10° E visible
30 May -3.5 22:22:31 10° SW 22:25:44 74° SE 22:28:59 10° ENE visible
30 May -0.7 23:59:53 10° WNW 00:02:26 21° NNW 00:04:59 10° NNE visible
31 May 0.1 01:38:14 10° NNW 01:39:46 13° N 01:41:18 10° NNE visible
31 May -0.6 03:14:31 10° NNW 03:17:05 21° NNE 03:19:40 10° ENE visible
31 May -3.4 04:50:32 10° WNW 04:53:47 72° SW 04:57:01 10° SE visible
31 May -2.8 21:29:24 10° SSW 21:32:23 35° SE 21:35:24 10° ENE visible
31 May -1.3 23:05:54 10° W 23:08:49 30° NNW 23:11:44 10° NE visible
01 Jun 0.1 00:44:20 10° NW 00:46:00 13° N 00:47:40 10° NNE visible
01 Jun -0.2 02:21:16 10° NNW 02:23:24 16° NNE 02:25:34 10° NE visible
01 Jun -2.7 03:57:07 10° NW 04:00:21 58° NNE 04:03:34 10° ESE visible
01 Jun -2.4 22:12:05 10° WSW 22:15:15 49° NNW 22:18:26 10° NE visible
01 Jun -0.1 23:50:12 10° NW 23:52:15 15° NNW 23:54:16 10° NNE visible
